Location: Bieujac
(44.5398°N, 0.1549°W)
Time: 11:28:14
(UTC+00:00)

Cosmos 1766 Rocket - Pass Details

Date: 17 November 2019
Orbit: 606 x 632 km, 82.5° (Epoch: 10 December)

Event Time Altitude Azimuth Distance (km) Brightness Sun altitude
Rises 05:01:34 0° 184° (S) 2,848 7.0 -20.8°
Reaches altitude 10° 05:03:46 10° 183° (S) 1,950 6.2 -20.4°
Maximum altitude 05:08:05 79° 97° (E) 625 3.6 -19.7°
Drops below altitude 10° 05:12:26 10° 11° (N) 1,973 6.2 -18.9°
Sets 05:14:41 0° 10° (N) 2,886 7.0 -18.5°
